Weather History for Watsonville, CA

Change the Weather History Date:

Thursday, July 18, 2013

  Actual Average Record
Temperature  
Mean Temperature 61 °F 63 °F  
Max Temperature 67 °F 73 °F 83 °F (2004)
Min Temperature 54 °F 53 °F 49 °F (2003)
Degree Days  
Heating Degree Days 4    
Month to date heating degree days 51  
Since 1 June heating degree days 153  
Since 1 July heating degree days 51  
Cooling Degree Days 0    
Month to date cooling degree days 10  
Year to date cooling degree days 40  
Since 1 June cooling degree days 34  
Growing Degree Days 10 (Base 50)    
Moisture  
Dew Point 53 °F    
Average Humidity 82    
Maximum Humidity 100    
Minimum Humidity 63    
Precipitation  
Precipitation 0.00 in - 0.02 in (1956)
Month to date precipitation 0.01  
Year to date precipitation 2.40  
Since 1 July precipitation 0.01  
Sea Level Pressure  
Sea Level Pressure 30.05 in    
Wind  
Wind Speed 4 mph (SE)    
Max Wind Speed 13 mph    
Max Gust Speed 36 mph    
Visibility 6 miles    
Events      
T = Trace of Precipitation, MM = Missing Value Source: NWS Daily Summary

Daily Weather History Graph

Daily Weather History Graph

Search for Another Location

Airport:

Trip Planner

Search our weather history database for the weather conditions in past years. The results will help you decide how hot, cold, wet, or windy it might be!

Date:

Astronomy

Jul. 18, 2013 Rise Set
Actual Time 6:01 AM PDT 8:24 PM PDT
Civil Twilight 5:32 AM PDT 8:54 PM PDT
Nautical Twilight 4:55 AM PDT 9:30 PM PDT
Astronomical Twilight 4:15 AM PDT 10:10 PM PDT
Moon 4:28 PM PDT (7/18) 1:55 AM PDT (7/18)
Length of Visible Light 15h 22m
Length of Day
14h 22m
Waxing Gibbous, 78% of the Moon is Illuminated
Jul 18
Waxing Gibbous
Jul 22
Full
Jul 29
Last Quarter
Aug 6
New
Aug 14
First Quarter

Hourly Weather History & Observations

Time (PDT) Temp. Dew Point Humidity Pressure Visibility Wind Dir Wind Speed Gust Speed Precip Events Conditions
12:26 AM 55.4 °F 51.8 °F 88% 30.09 in 10.0 mi ENE 3.5 mph - N/A   Overcast
12:53 AM 55.9 °F 52.0 °F 87% 30.09 in 10.0 mi ENE 3.5 mph - N/A   Overcast
1:53 AM 55.0 °F 53.1 °F 93% 30.07 in 9.0 mi Calm Calm - N/A   Overcast
2:53 AM 55.0 °F 52.0 °F 89% 30.06 in 7.0 mi WSW 3.5 mph - N/A   Overcast
3:23 AM 55.4 °F 53.6 °F 94% 30.06 in 2.5 mi Calm Calm - N/A   Overcast
3:32 AM 53.6 °F 51.8 °F 94% 30.06 in 4.0 mi Calm Calm - N/A   Overcast
3:53 AM 55.0 °F 52.0 °F 89% 30.06 in 5.0 mi Calm Calm - N/A   Overcast
4:13 AM 53.6 °F 51.8 °F 94% 30.05 in 1.8 mi Calm Calm - N/A   Overcast
4:53 AM 54.0 °F 53.1 °F 97% 30.06 in 1.0 mi Calm Calm - N/A   Overcast
5:39 AM 55.4 °F 53.6 °F 94% 30.06 in 1.5 mi Calm Calm - N/A   Overcast
5:50 AM 53.6 °F 53.6 °F 100% 30.07 in 2.0 mi East 3.5 mph - N/A   Overcast
5:53 AM 54.0 °F 53.1 °F 97% 30.06 in 1.5 mi East 3.5 mph - N/A   Overcast
6:01 AM 53.6 °F 53.6 °F 100% 30.06 in 1.0 mi Calm Calm - N/A   Mist
6:53 AM 54.0 °F 53.1 °F 97% 30.07 in 0.8 mi Calm Calm - N/A   Mist
7:17 AM 53.6 °F 53.6 °F 100% 30.07 in 1.2 mi North 3.5 mph - N/A   Overcast
7:53 AM 54.0 °F 53.1 °F 97% 30.08 in 0.8 mi Calm Calm - N/A   Overcast
8:09 AM 53.6 °F 53.6 °F 100% 30.08 in 1.0 mi Calm Calm - N/A   Overcast
8:37 AM 55.4 °F 53.6 °F 94% 30.09 in 2.0 mi Calm Calm - N/A   Overcast
8:53 AM 54.0 °F 52.0 °F 93% 30.09 in 4.0 mi Calm Calm - N/A   Overcast
9:53 AM 57.0 °F 53.1 °F 87% 30.08 in 9.0 mi Calm Calm - N/A   Overcast
10:11 AM 59.0 °F 53.6 °F 82% 30.08 in 10.0 mi Calm Calm - N/A   Overcast
10:53 AM 62.1 °F 54.0 °F 75% 30.07 in 9.0 mi SSW 5.8 mph - N/A   Mostly Cloudy
11:23 AM 64.4 °F 55.4 °F 73% 30.06 in 10.0 mi Variable 5.8 mph - N/A   Scattered Clouds
11:53 AM 66.0 °F 54.0 °F 65% 30.06 in 10.0 mi South 8.1 mph - N/A   Clear
12:53 PM 66.0 °F 53.1 °F 63% 30.05 in 10.0 mi SSW 6.9 mph - N/A   Clear
1:53 PM 66.0 °F 53.1 °F 63% 30.05 in 10.0 mi South 10.4 mph - N/A   Clear
2:53 PM 66.0 °F 53.1 °F 63% 30.03 in 10.0 mi SSW 6.9 mph - N/A   Clear
3:53 PM 64.0 °F 53.1 °F 67% 30.02 in 10.0 mi SSE 8.1 mph - N/A   Clear
4:33 PM 62.6 °F 53.6 °F 72% 30.02 in 10.0 mi SSE 9.2 mph - N/A   Partly Cloudy
4:53 PM 61.0 °F 52.0 °F 72% 30.01 in 10.0 mi SE 4.6 mph - N/A   Scattered Clouds
5:03 PM 60.8 °F 51.8 °F 72% 30.01 in 10.0 mi SSE 6.9 mph - N/A   Mostly Cloudy
5:53 PM 59.0 °F 52.0 °F 78% 30.00 in 10.0 mi ESE 6.9 mph - N/A   Overcast
6:29 PM 57.2 °F 51.8 °F 82% 30.00 in 10.0 mi ESE 5.8 mph - N/A   Overcast
6:53 PM 57.0 °F 52.0 °F 83% 30.00 in 10.0 mi East 8.1 mph - N/A   Overcast
7:53 PM 55.9 °F 52.0 °F 87% 30.00 in 8.0 mi ESE 8.1 mph - N/A   Overcast
8:53 PM 55.9 °F 52.0 °F 87% 30.00 in 9.0 mi East 4.6 mph - N/A   Overcast
9:53 PM 55.0 °F 52.0 °F 89% 30.01 in 9.0 mi East 3.5 mph - N/A   Overcast
10:53 PM 54.0 °F 52.0 °F 93% 30.01 in 8.0 mi Calm Calm - N/A   Overcast
11:53 PM 54.0 °F 52.0 °F 93% 30.00 in 7.0 mi Calm Calm - N/A   Overcast